| time (UTC) | temp F | wind direction | speed knots | gust knots | rain 1hr in | rain 24hr in | rain mn in | humidity % | barometer mb |
| 20260831222108 | 83 | 0.0 | 0.0 | 0.00 | 0.00 | 0.00 | 82 | 1016.7 | |
| 20260831221027 | 83 | 0.0 | 0.0 | 0.00 | 0.00 | 0.00 | 81 | 1016.7 | |
| 20260831220027 | 84 | 0.0 | 0.0 | 0.00 | 0.00 | 0.00 | 80 | 1016.8 | |
| 20260831215047 | 85 | 0.0 | 0.0 | 0.00 | 0.00 | 0.00 | 79 | 1016.7 | |
| 20260831214028 | 85 | 0.0 | 0.0 | 0.00 | 0.00 | 0.00 | 78 | 1016.6 | |
| 20260831213027 | 86 | 0.0 | 0.0 | 0.00 | 0.00 | 0.00 | 76 | 1016.5 | |
| 20260831212028 | 86 | 0.0 | 0.0 | 0.00 | 0.00 | 0.00 | 77 | 1016.5 | |
| 20260831211028 | 87 | 0.0 | 0.0 | 0.00 | 0.00 | 0.00 | 75 | 1016.5 | |
| 20260831210027 | 87 | 0.0 | 0.0 | 0.00 | 0.00 | 0.00 | 75 | 1016.5 | |
| 20260831205029 | 87 | 0.0 | 0.0 | 0.00 | 0.00 | 0.00 | 75 | 1016.4 | |
| 20260831204029 | 87 | 0.0 | 0.0 | 0.00 | 0.00 | 0.00 | 75 | 1016.5 | |
| 20260831203030 | 87 | 0.0 | 0.0 | 0.00 | 0.00 | 0.00 | 74 | 1016.5 | |
| 20260831202030 | 87 | 0.0 | 0.0 | 0.00 | 0.00 | 0.00 | 75 | 1016.5 | |
| 20260831201029 | 88 | 0.0 | 0.0 | 0.00 | 0.00 | 0.00 | 72 | 1016.6 | |
| 20260831200109 | 87 | 0.0 | 0.0 | 0.00 | 0.00 | 0.00 | 72 | 1016.6 | |
| 20260831195029 | 86 | 0.0 | 0.0 | 0.00 | 0.00 | 0.00 | 77 | 1016.7 | |
| 20260831194034 | 87 | 0.0 | 0.0 | 0.00 | 0.00 | 0.00 | 78 | 1016.8 | |
| 20260831193029 | 86 | 0.0 | 0.0 | 0.00 | 0.00 | 0.00 | 77 | 1016.9 | |
| 20260831192029 | 86 | 0.0 | 0.0 | 0.00 | 0.00 | 0.00 | 76 | 1017.0 | |
| 20260831191029 | 87 | 0.0 | 0.0 | 0.00 | 0.00 | 0.00 | 76 | 1017.1 | |
| 20260831190049 | 87 | 0.0 | 0.0 | 0.00 | 0.00 | 0.00 | 75 | 1017.1 | |
| 20260831185029 | 88 | 0.0 | 0.0 | 0.00 | 0.00 | 0.00 | 74 | 1017.0 | |
| 20260831184049 | 88 | 0.0 | 0.0 | 0.00 | 0.00 | 0.00 | 74 | 1017.1 | |
| 20260831183028 | 89 | 0.0 | 0.0 | 0.00 | 0.00 | 0.00 | 73 | 1017.0 | |
| 20260831182028 | 88 | 0.0 | 0.0 | 0.00 | 0.00 | 0.00 | 72 | 1017.1 | |
| 20260831181028 | 88 | 0.0 | 0.0 | 0.00 | 0.00 | 0.00 | 70 | 1017.3 | |
| 20260831180029 | 88 | 0.0 | 0.0 | 0.00 | 0.00 | 0.00 | 73 | 1017.3 | |
| 20260831175029 | 89 | 0.0 | 0.0 | 0.00 | 0.00 | 0.00 | 69 | 1017.3 | |
| 20260831174028 | 89 | 0.0 | 0.0 | 0.00 | 0.00 | 0.00 | 67 | 1017.5 | |
| 20260831173031 | 89 | 0.0 | 0.0 | 0.00 | 0.00 | 0.00 | 68 | 1017.5 | |
| 20260831172028 | 88 | 0.0 | 0.0 | 0.00 | 0.00 | 0.00 | 73 | 1017.6 | |
| 20260831171034 | 88 | 0.0 | 0.0 | 0.00 | 0.00 | 0.00 | 73 | 1017.8 | |
| 20260831170029 | 88 | 0.0 | 0.0 | 0.00 | 0.00 | 0.00 | 73 | 1017.9 | |
| 20260831165029 | 88 | 0.0 | 0.0 | 0.00 | 0.00 | 0.00 | 70 | 1018.0 | |
| 20260831164029 | 88 | 0.0 | 0.0 | 0.00 | 0.00 | 0.00 | 73 | 1018.1 | |
| 20260831163059 | 87 | 0.0 | 0.0 | 0.00 | 0.00 | 0.00 | 73 | 1018.1 | |
| 20260831162028 | 86 | 0.0 | 0.0 | 0.00 | 0.00 | 0.00 | 73 | 1018.1 | |
| 20260831161029 | 87 | 0.0 | 0.0 | 0.00 | 0.00 | 0.00 | 72 | 1018.0 | |
| 20260831160028 | 87 | 0.0 | 0.0 | 0.00 | 0.00 | 0.00 | 74 | 1018.1 | |
| 20260831155048 | 86 | 0.0 | 0.0 | 0.00 | 0.00 | 0.00 | 76 | 1018.0 | |
| 20260831154034 | 87 | 0.0 | 0.0 | 0.00 | 0.00 | 0.00 | 71 | 1018.1 | |
| 20260831153028 | 87 | 0.0 | 0.0 | 0.00 | 0.00 | 0.00 | 72 | 1018.0 | |
| 20260831152028 | 86 | 0.0 | 0.0 | 0.00 | 0.00 | 0.00 | 74 | 1018.0 | |
| 20260831151028 | 86 | 0.0 | 0.0 | 0.00 | 0.00 | 0.00 | 75 | 1018.0 | |
| 20260831150030 | 86 | 0.0 | 0.0 | 0.00 | 0.00 | 0.00 | 73 | 1017.9 | |
| 20260831145028 | 85 | 0.0 | 0.0 | 0.00 | 0.00 | 0.00 | 77 | 1017.9 | |
| 20260831144109 | 84 | 0.0 | 0.0 | 0.00 | 0.00 | 0.00 | 78 | 1017.8 | |
| 20260831143028 | 84 | 0.0 | 0.0 | 0.00 | 0.00 | 0.00 | 77 | 1017.9 | |
| 20260831142048 | 83 | 0.0 | 0.0 | 0.00 | 0.00 | 0.00 | 79 | 1017.9 | |
| 20260831141034 | 82 | 0.0 | 0.0 | 0.00 | 0.00 | 0.00 | 79 | 1017.8 | |
| 20260831140028 | 82 | 0.0 | 0.0 | 0.00 | 0.00 | 0.00 | 79 | 1017.8 | |
| 20260831135049 | 82 | 0.0 | 0.0 | 0.00 | 0.00 | 0.00 | 80 | 1017.9 | |
| 20260831134028 | 80 | 0.0 | 0.0 | 0.00 | 0.00 | 0.00 | 86 | 1018.0 | |
| 20260831133029 | 79 | 0.0 | 0.0 | 0.00 | 0.00 | 0.00 | 88 | 1018.1 | |
| 20260831132028 | 77 | 0.0 | 0.0 | 0.00 | 0.00 | 0.00 | 91 | 1018.1 | |
| 20260831131108 | 76 | 0.0 | 0.0 | 0.00 | 0.00 | 0.00 | 91 | 1018.1 | |
| 20260831130028 | 74 | 0.0 | 0.0 | 0.00 | 0.00 | 0.00 | 78 | 1018.1 | |
| 20260831125028 | 73 | 0.0 | 0.0 | 0.00 | 0.00 | 0.00 | 60 | 1018.1 | |
| 20260831124108 | 72 | 0.0 | 0.0 | 0.00 | 0.00 | 0.00 | 55 | 1018.1 | |
| 20260831123048 | 72 | 0.0 | 0.0 | 0.00 | 0.00 | 0.00 | 50 | 1018.1 | |
| 20260831122028 | 71 | 0.0 | 0.0 | 0.00 | 0.00 | 0.00 | 49 | 1017.9 | |
| 20260831121026 | 0 | 0.0 | 0.0 | 0.00 | 0.00 | 0.00 | |||
| 20260831120033 | 0 | 0.0 | 0.0 | 0.00 | 0.00 | 0.00 | |||
| 20260831115518 | 0 | 0.0 | 0.0 | 0.00 | 0.00 | 0.00 | |||
| 20260831115113 | 0 | 0.0 | 0.0 | 0.00 | 0.00 | 0.00 | |||
| 20260831114526 | 0 | 0.0 | 0.0 | 0.00 | 0.00 | 0.00 | |||
| 20260831113526 | 0 | 0.0 | 0.0 | 0.00 | 0.00 | 0.00 | |||
| 20260831113107 | 0 | 0.0 | 0.0 | 0.00 | 0.00 | 0.00 | |||
| 20260831112519 | 0 | 0.0 | 0.0 | 0.00 | 0.00 | 0.00 | |||
| 20260831112026 | 0 | 0.0 | 0.0 | 0.00 | 0.00 | 0.00 | |||
| 20260831111047 | 0 | 0.0 | 0.0 | 0.00 | 0.00 | 0.00 | |||
| 20260831110544 | 0 | 0.0 | 0.0 | 0.00 | 0.00 | 0.00 | |||
| 20260831110018 | 0 | 0.0 | 0.0 | 0.00 | 0.00 | 0.00 | |||
| 20260831105546 | 0 | 0.0 | 0.0 | 0.00 | 0.00 | 0.00 | |||
| 20260831104546 | 0 | 0.0 | 0.0 | 0.00 | 0.00 | 0.00 | |||
| 20260831104045 | 0 | 0.0 | 0.0 | 0.00 | 0.00 | 0.00 | |||
| 20260831103539 | 0 | 0.0 | 0.0 | 0.00 | 0.00 | 0.00 | |||
| 20260831102606 | 0 | 0.0 | 0.0 | 0.00 | 0.00 | 0.00 | |||
| 20260831101627 | 0 | 0.0 | 0.0 | 0.00 | 0.00 | 0.00 | |||
| 20260831101044 | 0 | 0.0 | 0.0 | 0.00 | 0.00 | 0.00 | |||
| 20260831100527 | 0 | 0.0 | 0.0 | 0.00 | 0.00 | 0.00 | |||
| 20260831095526 | 0 | 0.0 | 0.0 | 0.00 | 0.00 | 0.00 | |||
| 20260831095049 | 0 | 0.0 | 0.0 | 0.00 | 0.00 | 0.00 | |||
| 20260831094517 | 0 | 0.0 | 0.0 | 0.00 | 0.00 | 0.00 | |||
| 20260831094027 | 0 | 0.0 | 0.0 | 0.00 | 0.00 | 0.00 | |||
| 20260831093026 | 0 | 0.0 | 0.0 | 0.00 | 0.00 | 0.00 | |||
| 20260831092528 | 0 | 0.0 | 0.0 | 0.00 | 0.00 | 0.00 | |||
| 20260831092004 | 0 | 0.0 | 0.0 | 0.00 | 0.00 | 0.00 | |||
| 20260831091526 | 0 | 0.0 | 0.0 | 0.00 | 0.00 | 0.00 | |||
| 20260831090527 | 0 | 0.0 | 0.0 | 0.00 | 0.00 | 0.00 | |||
| 20260831090042 | 0 | 0.0 | 0.0 | 0.00 | 0.00 | 0.00 | |||
| 20260831085517 | 0 | 0.0 | 0.0 | 0.00 | 0.00 | 0.00 | |||
| 20260831085026 | 0 | 0.0 | 0.0 | 0.00 | 0.00 | 0.00 | |||
| 20260831084046 | 0 | 0.0 | 0.0 | 0.00 | 0.00 | 0.00 | |||
| 20260831083540 | 0 | 0.0 | 0.0 | 0.00 | 0.00 | 0.00 | |||
| 20260831083016 | 0 | 0.0 | 0.0 | 0.00 | 0.00 | 0.00 | |||
| 20260831082526 | 0 | 0.0 | 0.0 | 0.00 | 0.00 | 0.00 | |||
| 20260831081526 | 0 | 0.0 | 0.0 | 0.00 | 0.00 | 0.00 | |||
| 20260831081027 | 0 | 0.0 | 0.0 | 0.00 | 0.00 | 0.00 | |||
| 20260831080604 | 0 | 0.0 | 0.0 | 0.00 | 0.00 | 0.00 | |||
| 20260831080026 | 0 | 0.0 | 0.0 | 0.00 | 0.00 | 0.00 | |||
| 20260831075026 | 0 | 0.0 | 0.0 | 0.00 | 0.00 | 0.00 | |||
| 20260831074547 | 0 | 0.0 | 0.0 | 0.00 | 0.00 | 0.00 | |||
| 20260831074043 | 0 | 0.0 | 0.0 | 0.00 | 0.00 | 0.00 | |||
| 20260831073526 | 0 | 0.0 | 0.0 | 0.00 | 0.00 | 0.00 | |||
| 20260831072526 | 0 | 0.0 | 0.0 | 0.00 | 0.00 | 0.00 | |||
| 20260831072040 | 0 | 0.0 | 0.0 | 0.00 | 0.00 | 0.00 | |||
| 20260831071517 | 0 | 0.0 | 0.0 | 0.00 | 0.00 | 0.00 | |||
| 20260831071026 | 0 | 0.0 | 0.0 | 0.00 | 0.00 | 0.00 | |||
| 20260831070026 | 0 | 0.0 | 0.0 | 0.00 | 0.00 | 0.00 | |||
| 20260831065509 | 0 | 0.0 | 0.0 | 0.00 | 0.00 | 0.00 | 84 | ||
| 20260831065104 | 70 | 0.0 | 0.0 | 0.00 | 0.00 | 0.00 | 84 | 1016.7 | |
| 20260831064527 | 71 | 0.0 | 0.0 | 0.00 | 0.00 | 0.00 | 84 | 1016.7 | |
| 20260831063548 | 71 | 0.0 | 0.0 | 0.00 | 0.00 | 0.00 | 85 | 1016.7 | |
| 20260831062527 | 71 | 0.0 | 0.0 | 0.00 | 0.00 | 0.00 | 85 | 1016.8 | |
| 20260831061528 | 71 | 0.0 | 0.0 | 0.00 | 0.00 | 0.00 | 85 | 1016.8 | |
| 20260831060527 | 71 | 0.0 | 0.0 | 0.00 | 0.00 | 0.00 | 87 | 1016.9 | |
| 20260831055547 | 72 | 0.0 | 0.0 | 0.00 | 0.00 | 0.00 | 87 | 1016.9 | |
| 20260831054527 | 72 | 0.0 | 0.0 | 0.00 | 0.00 | 0.00 | 88 | 1017.0 | |
| 20260831053527 | 72 | 0.0 | 0.0 | 0.00 | 0.00 | 0.00 | 89 | 1017.0 | |
| 20260831052528 | 72 | 0.0 | 0.0 | 0.00 | 0.00 | 0.00 | 90 | 1017.2 | |
| 20260831051527 | 72 | 0.0 | 0.0 | 0.00 | 0.00 | 0.00 | 91 | 1017.3 | |
| 20260831050527 | 72 | 0.0 | 0.0 | 0.00 | 0.00 | 0.00 | 91 | 1017.3 | |
| 20260831045527 | 73 | 0.0 | 0.0 | 0.00 | 0.00 | 0.00 | 92 | 1017.4 | |
| 20260831044547 | 73 | 0.0 | 0.0 | 0.00 | 0.00 | 0.00 | 92 | 1017.3 | |
| 20260831043527 | 73 | 0.0 | 0.0 | 0.00 | 0.00 | 0.00 | 92 | 1017.2 | |
| 20260831042547 | 73 | 0.0 | 0.0 | 0.00 | 0.00 | 0.00 | 92 | 1017.1 | |
| 20260831041547 | 73 | 0.0 | 0.0 | 0.00 | 0.00 | 0.00 | 92 | 1017.3 | |
| 20260831040537 | 73 | 0.0 | 0.0 | 0.00 | 0.00 | 0.00 | 92 | 1017.3 | |
| 20260831035527 | 73 | 0.0 | 0.0 | 0.00 | 0.00 | 0.00 | 92 | 1017.3 | |
| 20260831034528 | 73 | 0.0 | 0.0 | 0.00 | 0.00 | 0.00 | 92 | 1017.4 | |
| 20260831033527 | 73 | 0.0 | 0.0 | 0.00 | 0.00 | 0.00 | 92 | 1017.8 | |
| 20260831032528 | 73 | 0.0 | 0.0 | 0.00 | 0.00 | 0.00 | 92 | 1017.9 | |
| 20260831031528 | 73 | 0.0 | 0.0 | 0.00 | 0.00 | 0.00 | 92 | 1017.8 | |
| 20260831030527 | 73 | 0.0 | 0.0 | 0.00 | 0.00 | 0.00 | 92 | 1018.0 | |
| 20260831025527 | 73 | 0.0 | 0.0 | 0.00 | 0.00 | 0.00 | 92 | 1018.1 | |
| 20260831024547 | 72 | 0.0 | 0.0 | 0.00 | 0.00 | 0.00 | 92 | 1018.2 | |
| 20260831023527 | 72 | 0.0 | 0.0 | 0.00 | 0.00 | 0.00 | 92 | 1018.4 | |
| 20260831022527 | 72 | 0.0 | 0.0 | 0.00 | 0.00 | 0.00 | 92 | 1018.1 | |
| 20260831021527 | 72 | 0.0 | 0.0 | 0.00 | 0.00 | 0.00 | 92 | 1018.1 | |
| 20260831020528 | 72 | 0.0 | 0.0 | 0.00 | 0.00 | 0.00 | 92 | 1018.0 | |
| 20260831015527 | 72 | 0.0 | 0.0 | 0.00 | 0.00 | 0.00 | 92 | 1018.0 | |
| 20260831014527 | 73 | 0.0 | 0.0 | 0.00 | 0.00 | 0.00 | 92 | 1017.9 | |
| 20260831013549 | 73 | 0.0 | 0.0 | 0.00 | 0.00 | 0.00 | 91 | 1018.0 | |
| 20260831012527 | 73 | 0.0 | 0.0 | 0.00 | 0.00 | 0.00 | 91 | 1018.0 | |
| 20260831011547 | 73 | 0.0 | 0.0 | 0.00 | 0.00 | 0.00 | 91 | 1018.0 | |
| 20260831010527 | 73 | 0.0 | 0.0 | 0.00 | 0.00 | 0.00 | 91 | 1017.8 | |
| 20260831005528 | 74 | 0.0 | 0.0 | 0.00 | 0.00 | 0.00 | 90 | 1017.8 | |
| 20260831004527 | 74 | 0.0 | 0.0 | 0.00 | 0.00 | 0.00 | 90 | 1017.7 | |
| 20260831003527 | 74 | 0.0 | 0.0 | 0.00 | 0.00 | 0.00 | 89 | 1017.6 | |
| 20260831002527 | 74 | 0.0 | 0.0 | 0.00 | 0.00 | 0.00 | 88 | 1017.4 | |
| 20260831001527 | 74 | 0.0 | 0.0 | 0.00 | 0.00 | 0.00 | 88 | 1017.2 | |
| 20260831000547 | 74 | 0.0 | 0.0 | 0.00 | 0.00 | 0.00 | 86 | 1017.1 | |
| 20260830235527 | 75 | 0.0 | 0.0 | 0.00 | 0.00 | 0.00 | 85 | 1017.2 | |
| 20260830234528 | 76 | 0.0 | 0.0 | 0.00 | 0.00 | 0.00 | 82 | 1017.2 | |
| 20260830233528 | 78 | 0.0 | 0.0 | 0.00 | 0.00 | 0.00 | 79 | 1017.5 | |
| 20260830232527 | 80 | 0.0 | 0.0 | 0.00 | 0.00 | 0.00 | 76 | 1017.8 | |
| 20260830231527 | 81 | 0.0 | 0.0 | 0.00 | 0.00 | 0.00 | 73 | 1017.9 | |
| 20260830230532 | 82 | 0.0 | 0.0 | 0.00 | 0.00 | 0.00 | 75 | 1017.9 | |
| 20260830225526 | 82 | 0.0 | 0.0 | 0.00 | 0.00 | 0.00 | 76 | 1017.7 | |
| 20260830224527 | 83 | 0.0 | 0.0 | 0.00 | 0.00 | 0.00 | 75 | 1017.4 | |
| 20260830223527 | 83 | 0.0 | 0.0 | 0.00 | 0.00 | 0.00 | 74 | 1017.3 |